[keps] orb09260.amsat
Ray Hoad
r.hoad at att.net
Thu Sep 17 19:33:14 PDT 2009
SB KEPS @ AMSAT $ORB09260.O
Orbital Elements 09260.OSCAR
HR AMSAT ORBITAL ELEMENTS FOR OSCAR SATELLITES
FROM WA5QGD FORT WORTH,TX September 17, 2009
Send Subscribe/unsubscribe to KEPS at
http://www.amsat.org/mailman/listinfo/keps
BID: ORB09260.O
TO ALL RADIO AMATEURS BT
Satellite: AO-07
Catalog number: 07530
Epoch time: 09259.62670615
Element set: 0583
Inclination: 101.4227 deg
RA of node: 280.9347 deg
Eccentricity: 0.0012120
Arg of perigee: 089.5816 deg
Mean anomaly: 270.6639 deg
Mean motion: 12.53576516 rev/day
Decay rate: -2.7e-07 rev/day^2
Epoch rev: 59417
Checksum: 310
Satellite: FO-29
Catalog number: 24278
Epoch time: 09259.77835131
Element set: 0153
Inclination: 098.5387 deg
RA of node: 121.4465 deg
Eccentricity: 0.0351309
Arg of perigee: 112.9478 deg
Mean anomaly: 250.9134 deg
Mean motion: 13.52944998 rev/day
Decay rate: -2.0e-08 rev/day^2
Epoch rev: 64613
Checksum: 332
Satellite: SO-33
Catalog number: 25509
Epoch time: 09260.24971166
Element set: 544
Inclination: 031.4321 deg
RA of node: 251.9117 deg
Eccentricity: 0.0354095
Arg of perigee: 063.4049 deg
Mean anomaly: 300.2404 deg
Mean motion: 14.28266268 rev/day
Decay rate: 2.24e-06 rev/day^2
Epoch rev: 56900
Checksum: 281
Satellite: RS-22
Catalog number: 27939
Epoch time: 09259.68851878
Element set: 0893
Inclination: 097.9287 deg
RA of node: 131.1588 deg
Eccentricity: 0.0012972
Arg of perigee: 200.3116 deg
Mean anomaly: 159.7579 deg
Mean motion: 14.63340633 rev/day
Decay rate: 1.05e-06 rev/day^2
Epoch rev: 31895
Checksum: 351
Satellite: VO-52
Catalog number: 28650
Epoch time: 09260.30319209
Element set: 321
Inclination: 097.7349 deg
RA of node: 318.7955 deg
Eccentricity: 0.0028342
Arg of perigee: 089.0168 deg
Mean anomaly: 271.4268 deg
Mean motion: 14.81618052 rev/day
Decay rate: -1.47e-06 rev/day^2
Epoch rev: 23628
Checksum: 316
/EX
SB KEPS @ AMSAT $ORB09260.D
Orbital Elements 09260.MICROS
HR AMSAT ORBITAL ELEMENTS FOR THE MICROSATS
FROM WA5QGD FORT WORTH,TX September 17, 2009
Send Subscribe/unsubscribe to KEPS at
http://www.amsat.org/mailman/listinfo/keps
BID: ORB09260.D
TO ALL RADIO AMATEURS BT
Satellite: AO-16
Catalog number: 20439
Epoch time: 09260.79633904
Element set: 704
Inclination: 098.2905 deg
RA of node: 225.0359 deg
Eccentricity: 0.0009967
Arg of perigee: 255.9114 deg
Mean anomaly: 104.0962 deg
Mean motion: 14.31833241 rev/day
Decay rate: 1.2e-07 rev/day^2
Epoch rev: 2640
Checksum: 289
Satellite: LO-19
Catalog number: 20442
Epoch time: 09260.48882909
Element set: 619
Inclination: 098.2530 deg
RA of node: 231.6465 deg
Eccentricity: 0.0010974
Arg of perigee: 250.5082 deg
Mean anomaly: 109.4933 deg
Mean motion: 14.32067738 rev/day
Decay rate: 2.0e-08 rev/day^2
Epoch rev: 2652
Checksum: 299
Satellite: AO-27
Catalog number: 22825
Epoch time: 09260.27335716
Element set: 341
Inclination: 098.4461 deg
RA of node: 210.8360 deg
Eccentricity: 0.0008249
Arg of perigee: 000.0610 deg
Mean anomaly: 000.0584 deg
Mean motion: 14.29273039 rev/day
Decay rate: -2.7e-07 rev/day^2
Epoch rev: 83306
Checksum: 267
Satellite: IO-26
Catalog number: 22826
Epoch time: 09260.38731082
Element set: 71
Inclination: 098.4384 deg
RA of node: 211.6560 deg
Eccentricity: 0.0009036
Arg of perigee: 354.7427 deg
Mean anomaly: 005.3663 deg
Mean motion: 14.29526004 rev/day
Decay rate: 5.0e-08 rev/day^2
Epoch rev: 83318
Checksum: 288
Satellite: GO-32
Catalog number: 25397
Epoch time: 09259.82226978
Element set: 0993
Inclination: 098.3248 deg
RA of node: 277.2455 deg
Eccentricity: 0.0001448
Arg of perigee: 025.3266 deg
Mean anomaly: 334.7975 deg
Mean motion: 14.23162460 rev/day
Decay rate: -1.82e-06 rev/day^2
Epoch rev: 58116
Checksum: 338
Satellite: NO-44
Catalog number: 26931
Epoch time: 09259.86506764
Element set: 0267
Inclination: 067.0517 deg
RA of node: 188.1527 deg
Eccentricity: 0.0006661
Arg of perigee: 274.5655 deg
Mean anomaly: 085.4657 deg
Mean motion: 14.29567289 rev/day
Decay rate: 6.4e-07 rev/day^2
Epoch rev: 41568
Checksum: 355
Satellite: SO-50
Catalog number: 27607
Epoch time: 09260.75466124
Element set: 986
Inclination: 064.5581 deg
RA of node: 103.9513 deg
Eccentricity: 0.0056545
Arg of perigee: 182.6486 deg
Mean anomaly: 177.4328 deg
Mean motion: 14.71458233 rev/day
Decay rate: -3.1e-07 rev/day^2
Epoch rev: 36229
Checksum: 321
Satellite: CO-55
Catalog number: 27844
Epoch time: 09260.60767456
Element set: 669
Inclination: 098.7142 deg
RA of node: 268.4762 deg
Eccentricity: 0.0009044
Arg of perigee: 236.1882 deg
Mean anomaly: 123.8441 deg
Mean motion: 14.20655870 rev/day
Decay rate: 3.6e-07 rev/day^2
Epoch rev: 32238
Checksum: 326
Satellite: CO-57
Catalog number: 27848
Epoch time: 09260.80947590
Element set: 619
Inclination: 098.7177 deg
RA of node: 267.7385 deg
Eccentricity: 0.0008969
Arg of perigee: 241.1494 deg
Mean anomaly: 118.8791 deg
Mean motion: 14.20455525 rev/day
Decay rate: 1.1e-07 rev/day^2
Epoch rev: 32237
Checksum: 348
Satellite: AO-51
Catalog number: 28375
Epoch time: 09260.06012408
Element set: 487
Inclination: 098.0547 deg
RA of node: 264.3202 deg
Eccentricity: 0.0082903
Arg of perigee: 206.0341 deg
Mean anomaly: 153.6669 deg
Mean motion: 14.40652079 rev/day
Decay rate: 1.0e-08 rev/day^2
Epoch rev: 27418
Checksum: 287
Satellite: CO-56
Catalog number: 28941
Epoch time: 09260.75404732
Element set: 450
Inclination: 098.1266 deg
RA of node: 093.5596 deg
Eccentricity: 0.0052767
Arg of perigee: 138.7772 deg
Mean anomaly: 221.7472 deg
Mean motion: 15.98979695 rev/day
Decay rate: 1.57467e-03 rev/day^2
Epoch rev: 20196
Checksum: 372
Satellite: GENESAT1
Catalog number: 29655
Epoch time: 09259.59750941
Element set: 0819
Inclination: 040.0242 deg
RA of node: 329.7914 deg
Eccentricity: 0.0002151
Arg of perigee: 083.8321 deg
Mean anomaly: 276.2742 deg
Mean motion: 15.67438654 rev/day
Decay rate: 1.3207e-04 rev/day^2
Epoch rev: 15681
Checksum: 312
Satellite: CP3
Catalog number: 31129
Epoch time: 09260.71056793
Element set: 200
Inclination: 097.9795 deg
RA of node: 309.3144 deg
Eccentricity: 0.0102724
Arg of perigee: 359.2113 deg
Mean anomaly: 000.8896 deg
Mean motion: 14.52161620 rev/day
Decay rate: 3.8e-07 rev/day^2
Epoch rev: 12831
Checksum: 281
Satellite: CO-65
Catalog number: 32785
Epoch time: 09260.72252769
Element set: 473
Inclination: 097.9364 deg
RA of node: 323.8817 deg
Eccentricity: 0.0016137
Arg of perigee: 090.1838 deg
Mean anomaly: 270.1222 deg
Mean motion: 14.81516508 rev/day
Decay rate: -9.3e-07 rev/day^2
Epoch rev: 7514
Checksum: 320
Satellite: KKS-1
Catalog number: 33493
Epoch time: 09260.81384222
Element set: 764
Inclination: 098.0635 deg
RA of node: 013.4647 deg
Eccentricity: 0.0019000
Arg of perigee: 304.4734 deg
Mean anomaly: 055.4695 deg
Mean motion: 14.80728283 rev/day
Decay rate: 2.25e-06 rev/day^2
Epoch rev: 3517
Checksum: 290
Satellite: SOHLA-1
Catalog number: 33496
Epoch time: 09260.79020507
Element set: 729
Inclination: 098.0437 deg
RA of node: 008.6832 deg
Eccentricity: 0.0006756
Arg of perigee: 000.3019 deg
Mean anomaly: 359.8188 deg
Mean motion: 14.69446383 rev/day
Decay rate: 2.8e-07 rev/day^2
Epoch rev: 3487
Checksum: 319
/EX
SB KEPS @ AMSAT $ORB09260.W
Orbital Elements 09260.WEATHER
HR AMSAT ORBITAL ELEMENTS FOR WEATHER SATELLITES
FROM WA5QGD FORT WORTH,TX September 17, 2009
Send Subscribe/unsubscribe to KEPS at
http://www.amsat.org/mailman/listinfo/keps
BID: ORB09260.W
TO ALL RADIO AMATEURS BT
Satellite: NOAA-10
Catalog number: 16969
Epoch time: 09259.63458652
Element set: 0764
Inclination: 098.6879 deg
RA of node: 285.7660 deg
Eccentricity: 0.0011569
Arg of perigee: 292.1902 deg
Mean anomaly: 067.8053 deg
Mean motion: 14.27393506 rev/day
Decay rate: -1.13e-06 rev/day^2
Epoch rev: 19655
Checksum: 352
Satellite: NOAA-11
Catalog number: 19531
Epoch time: 09259.78449313
Element set: 0782
Inclination: 098.7821 deg
RA of node: 348.3147 deg
Eccentricity: 0.0011106
Arg of perigee: 204.8251 deg
Mean anomaly: 155.2372 deg
Mean motion: 14.14903584 rev/day
Decay rate: 8.5e-07 rev/day^2
Epoch rev: 08247
Checksum: 307
Satellite: NOAA-12
Catalog number: 21263
Epoch time: 09259.98104141
Element set: 0294
Inclination: 098.7750 deg
RA of node: 268.0943 deg
Eccentricity: 0.0011407
Arg of perigee: 238.6592 deg
Mean anomaly: 121.3473 deg
Mean motion: 14.25593049 rev/day
Decay rate: 1.7e-07 rev/day^2
Epoch rev: 95347
Checksum: 311
Satellite: MET-3/5
Catalog number: 21655
Epoch time: 09260.90745598
Element set: 655
Inclination: 082.5581 deg
RA of node: 141.0151 deg
Eccentricity: 0.0012921
Arg of perigee: 314.0697 deg
Mean anomaly: 045.9359 deg
Mean motion: 13.17021356 rev/day
Decay rate: 5.1e-07 rev/day^2
Epoch rev: 86983
Checksum: 309
Satellite: MET-2/21
Catalog number: 22782
Epoch time: 09260.66880123
Element set: 567
Inclination: 082.5457 deg
RA of node: 108.6595 deg
Eccentricity: 0.0023866
Arg of perigee: 087.3329 deg
Mean anomaly: 273.0565 deg
Mean motion: 13.83638072 rev/day
Decay rate: 8.0e-08 rev/day^2
Epoch rev: 81039
Checksum: 327
Satellite: OKEAN-4
Catalog number: 23317
Epoch time: 09259.74523149
Element set: 0020
Inclination: 082.5368 deg
RA of node: 249.0375 deg
Eccentricity: 0.0023949
Arg of perigee: 064.5498 deg
Mean anomaly: 295.8213 deg
Mean motion: 14.82719968 rev/day
Decay rate: 1.99e-06 rev/day^2
Epoch rev: 80593
Checksum: 346
Satellite: NOAA-14
Catalog number: 23455
Epoch time: 09259.82096992
Element set: 0760
Inclination: 098.9027 deg
RA of node: 337.1519 deg
Eccentricity: 0.0008504
Arg of perigee: 292.2126 deg
Mean anomaly: 067.8118 deg
Mean motion: 14.13769179 rev/day
Decay rate: -7.1e-07 rev/day^2
Epoch rev: 75887
Checksum: 346
Satellite: NOAA-15
Catalog number: 25338
Epoch time: 09259.90902129
Element set: 0084
Inclination: 098.5931 deg
RA of node: 247.1440 deg
Eccentricity: 0.0011256
Arg of perigee: 146.2229 deg
Mean anomaly: 213.9660 deg
Mean motion: 14.24784579 rev/day
Decay rate: 1.19e-06 rev/day^2
Epoch rev: 58983
Checksum: 326
